Torna al catalogo

STARLINK-35896

AttivoComunicazioniVLEO
NORAD 66824·PAYLOAD·🇺🇸 United States

Lanciato Dec 2, 2025 da Vandenberg Space Force Base

Loading…

Prossimi Passaggi (prossime 24 ore)

TLE

AggiornatoSource: CelesTrak SupGP

Epoca: Sep 15, 2026, 04:01 UTC

1 66824C 25280D   26258.16784722 -.00052074  00000+0 -43631-2 0  2589
2 66824  70.0010 216.8034 0003372 269.3949 164.3738 14.98364393    10

Traccia STARLINK-35896 in tempo reale con AllMySat

Download on the App Store